{"data":{"norad_id":63996,"intl_designator":"2025-101C","name":"STARLINK-34158","alt_names":[],"object_type":"PAYLOAD","status":"ACTIVE","operator":null,"country":"US","launch_date":"2025-05-14","launch_site_code":"AFETR","launch_vehicle":null,"mission":null,"orbit_class":"UNKNOWN","rcs_meters":null,"size_class":null,"mass_kg":null,"dimensions":null,"purposes":["comms"],"wikipedia_slug":null,"has_3d_model":false,"image_url":null,"decayed_at":null,"tle_current":{"epoch":"2026-05-25T02:30:08.133984Z","epoch_age_seconds":76342,"freshness":"FRESH","line1":"1 63996U 25101C   26145.10426081  .00018296  00000+0  67244-3 0  9993","line2":"2 63996  43.0007 286.3010 0001743 266.2275  93.8377 15.27593573 58742","mean_motion":15.27593573,"eccentricity":0.0001743,"inclination_deg":43.0007,"raan_deg":286.301,"arg_perigee_deg":266.2275,"mean_anomaly_deg":93.8377,"bstar":0.00067244,"rev_number":5874,"period_min":94.265911133157,"perigee_km":481.81255624311,"apogee_km":484.20435154834,"semimajor_km":6861.1454538957,"source":"CELESTRAK","updated_at":"2026-05-25T13:38:20.217526Z"}}}